TimeCDT,TemperatureF,Dew PointF,Humidity,Sea Level PressureIn,VisibilityMPH,Wind Direction,Wind SpeedMPH,Gust SpeedMPH,PrecipitationIn,Events,Conditions,WindDirDegrees,DateUTC
12:35 AM,62.6,60.8,94,30.26,7.0,Calm,Calm,-,N/A,,Clear,0,2013-08-25 05:35:00
12:55 AM,62.6,60.8,94,30.26,5.0,Calm,Calm,-,N/A,,Clear,0,2013-08-25 05:55:00
1:15 AM,62.6,60.8,94,30.26,10.0,SE,3.5,-,N/A,,Clear,140,2013-08-25 06:15:00
1:35 AM,62.6,60.8,94,30.26,10.0,Calm,Calm,-,N/A,,Clear,0,2013-08-25 06:35:00
1:55 AM,62.6,60.8,94,30.26,10.0,SSE,3.5,-,N/A,,Clear,160,2013-08-25 06:55:00
2:15 AM,62.6,62.6,100,30.27,10.0,Calm,Calm,-,N/A,,Clear,0,2013-08-25 07:15:00
2:35 AM,62.6,62.6,100,30.27,10.0,Calm,Calm,-,N/A,,Clear,0,2013-08-25 07:35:00
2:55 AM,62.6,60.8,94,30.28,10.0,Calm,Calm,-,N/A,,Clear,0,2013-08-25 07:55:00
3:15 AM,60.8,60.8,100,30.28,5.0,Calm,Calm,-,N/A,,Clear,0,2013-08-25 08:15:00
3:35 AM,60.8,60.8,100,30.29,7.0,Calm,Calm,-,N/A,,Clear,0,2013-08-25 08:35:00
3:55 AM,60.8,60.8,100,30.29,0.8,Calm,Calm,-,N/A,,Unknown,0,2013-08-25 08:55:00
4:15 AM,60.8,59.0,94,30.29,1.0,Calm,Calm,-,N/A,,Unknown,0,2013-08-25 09:15:00
4:35 AM,60.8,59.0,94,30.29,5.0,Calm,Calm,-,N/A,,Clear,0,2013-08-25 09:35:00
4:55 AM,60.8,60.8,100,30.30,5.0,Calm,Calm,-,N/A,,Clear,0,2013-08-25 09:55:00
5:15 AM,60.8,59.0,94,30.31,5.0,Calm,Calm,-,N/A,,Clear,0,2013-08-25 10:15:00
5:35 AM,60.8,59.0,94,30.32,6.0,Calm,Calm,-,N/A,,Clear,0,2013-08-25 10:35:00
5:55 AM,60.8,59.0,94,30.32,10.0,Calm,Calm,-,N/A,,Clear,0,2013-08-25 10:55:00
6:15 AM,60.8,59.0,94,30.33,7.0,Calm,Calm,-,N/A,,Clear,0,2013-08-25 11:15:00
6:35 AM,60.8,60.8,100,30.34,6.0,Calm,Calm,-,N/A,,Clear,0,2013-08-25 11:35:00
6:55 AM,64.4,62.6,94,30.34,8.0,Calm,Calm,-,N/A,,Clear,0,2013-08-25 11:55:00
7:15 AM,64.4,64.4,100,30.35,9.0,Calm,Calm,-,N/A,,Clear,0,2013-08-25 12:15:00
7:35 AM,68.0,64.4,88,30.35,10.0,SSE,3.5,-,N/A,,Clear,150,2013-08-25 12:35:00
7:55 AM,69.8,64.4,83,30.35,10.0,SSE,3.5,-,N/A,,Clear,150,2013-08-25 12:55:00
8:15 AM,71.6,64.4,78,30.35,10.0,SSE,6.9,-,N/A,,Clear,160,2013-08-25 13:15:00
8:35 AM,71.6,64.4,78,30.36,10.0,South,5.8,-,N/A,,Clear,180,2013-08-25 13:35:00
8:55 AM,73.4,64.4,73,30.37,10.0,South,6.9,-,N/A,,Clear,170,2013-08-25 13:55:00
9:15 AM,73.4,62.6,69,30.37,10.0,South,5.8,-,N/A,,Clear,190,2013-08-25 14:15:00
9:35 AM,75.2,64.4,69,30.37,10.0,Variable,4.6,-,N/A,,Clear,0,2013-08-25 14:35:00
9:55 AM,75.2,62.6,65,30.37,10.0,South,8.1,-,N/A,,Clear,180,2013-08-25 14:55:00
10:15 AM,75.2,62.6,65,30.37,10.0,South,6.9,-,N/A,,Clear,190,2013-08-25 15:15:00
10:35 AM,78.8,64.4,61,30.36,10.0,South,8.1,-,N/A,,Clear,170,2013-08-25 15:35:00
10:55 AM,78.8,64.4,61,30.36,10.0,Variable,5.8,-,N/A,,Clear,0,2013-08-25 15:55:00
11:15 AM,80.6,64.4,58,30.35,10.0,South,5.8,-,N/A,,Clear,190,2013-08-25 16:15:00
11:35 AM,80.6,62.6,54,30.35,10.0,SSW,8.1,-,N/A,,Clear,210,2013-08-25 16:35:00
11:55 AM,80.6,64.4,58,30.34,10.0,SW,4.6,-,N/A,,Clear,220,2013-08-25 16:55:00
12:15 PM,82.4,64.4,54,30.33,10.0,Variable,3.5,-,N/A,,Clear,0,2013-08-25 17:15:00
12:35 PM,82.4,62.6,51,30.32,10.0,SW,3.5,-,N/A,,Clear,220,2013-08-25 17:35:00
12:55 PM,82.4,62.6,51,30.32,10.0,SW,5.8,-,N/A,,Clear,220,2013-08-25 17:55:00
1:15 PM,82.4,62.6,51,30.32,10.0,South,3.5,-,N/A,,Clear,180,2013-08-25 18:15:00
1:35 PM,84.2,62.6,48,30.31,10.0,SSE,5.8,-,N/A,,Clear,150,2013-08-25 18:35:00
1:55 PM,84.2,62.6,48,30.30,10.0,Calm,Calm,-,N/A,,Clear,0,2013-08-25 18:55:00
2:15 PM,84.2,62.6,48,30.29,10.0,Calm,Calm,-,N/A,,Scattered Clouds,0,2013-08-25 19:15:00
2:35 PM,86.0,62.6,45,30.28,10.0,Calm,Calm,-,N/A,,Scattered Clouds,0,2013-08-25 19:35:00
2:55 PM,84.2,64.4,51,30.28,10.0,SSW,4.6,-,N/A,,Scattered Clouds,200,2013-08-25 19:55:00
3:15 PM,84.2,62.6,48,30.27,10.0,Calm,Calm,-,N/A,,Mostly Cloudy,0,2013-08-25 20:15:00
3:35 PM,84.2,62.6,48,30.27,10.0,Calm,Calm,-,N/A,,Mostly Cloudy,0,2013-08-25 20:35:00
3:55 PM,82.4,62.6,51,30.27,10.0,Calm,Calm,-,N/A,,Scattered Clouds,0,2013-08-25 20:55:00
4:15 PM,82.4,64.4,54,30.27,10.0,Calm,Calm,-,N/A,,Partly Cloudy,0,2013-08-25 21:15:00
4:35 PM,82.4,60.8,48,30.27,6.0,Calm,Calm,-,N/A,,Clear,0,2013-08-25 21:35:00
4:55 PM,86.0,62.6,45,30.26,8.0,Variable,6.9,-,N/A,,Clear,0,2013-08-25 21:55:00
5:15 PM,84.2,62.6,48,30.27,4.0,Calm,Calm,-,N/A,,Partly Cloudy,0,2013-08-25 22:15:00
5:35 PM,82.4,64.4,54,30.27,10.0,Calm,Calm,-,N/A,,Clear,0,2013-08-25 22:35:00
5:55 PM,80.6,69.8,70,30.27,10.0,Calm,Calm,-,N/A,,Scattered Clouds,0,2013-08-25 22:55:00
6:15 PM,78.8,68.0,69,30.27,10.0,Calm,Calm,-,N/A,,Scattered Clouds,0,2013-08-25 23:15:00
6:35 PM,78.8,68.0,69,30.27,10.0,Calm,Calm,-,N/A,,Mostly Cloudy,0,2013-08-25 23:35:00
6:55 PM,75.2,68.0,78,30.27,10.0,Calm,Calm,-,N/A,,Mostly Cloudy,0,2013-08-25 23:55:00
7:15 PM,75.2,68.0,78,30.27,10.0,Calm,Calm,-,N/A,,Overcast,0,2013-08-26 00:15:00
7:35 PM,73.4,69.8,88,30.28,10.0,SSE,3.5,-,N/A,,Mostly Cloudy,160,2013-08-26 00:35:00
7:55 PM,73.4,66.2,78,30.29,10.0,SSE,4.6,-,N/A,,Scattered Clouds,160,2013-08-26 00:55:00
8:15 PM,71.6,66.2,83,30.29,10.0,SSE,3.5,-,N/A,,Clear,160,2013-08-26 01:15:00
8:35 PM,71.6,64.4,78,30.29,10.0,SSE,3.5,-,N/A,,Clear,160,2013-08-26 01:35:00
8:55 PM,69.8,64.4,83,30.29,10.0,SE,4.6,-,N/A,,Clear,140,2013-08-26 01:55:00
9:15 PM,66.2,64.4,94,30.30,10.0,Calm,Calm,-,N/A,,Clear,0,2013-08-26 02:15:00
9:35 PM,66.2,62.6,88,30.31,10.0,Calm,Calm,-,N/A,,Clear,0,2013-08-26 02:35:00
9:55 PM,64.4,62.6,94,30.31,10.0,Calm,Calm,-,N/A,,Clear,0,2013-08-26 02:55:00
10:15 PM,64.4,62.6,94,30.32,10.0,Calm,Calm,-,N/A,,Clear,0,2013-08-26 03:15:00
10:35 PM,64.4,62.6,94,30.32,10.0,Calm,Calm,-,N/A,,Clear,0,2013-08-26 03:35:00
10:55 PM,62.6,62.6,100,30.32,10.0,Calm,Calm,-,N/A,,Clear,0,2013-08-26 03:55:00
11:15 PM,62.6,62.6,100,30.32,10.0,Calm,Calm,-,N/A,,Clear,0,2013-08-26 04:15:00
11:35 PM,62.6,62.6,100,30.32,10.0,Calm,Calm,-,N/A,,Clear,0,2013-08-26 04:35:00
11:55 PM,62.6,60.8,94,30.32,10.0,Calm,Calm,-,N/A,,Clear,0,2013-08-26 04:55:00